VRMM

Velana International Airport

Airport
ICAO code
VRMM
IATA Code
MLE
Summary
ICAO Region
APAC
ICAO Territory
Location

Hulhulé Island, Kaafu Atoll

Serving
Male
Elevation
6 ft
Coordinates
4° 11' 31" N , 73° 31' 45" E
KCC
Metar
VRMM 160000Z 23010KT 9999 FEW018TCU BKN260 30/26 Q1007 NOSIG

Velana International Airport, also known as Malé International Airport, previously known as Ibrahim Nasir International Airport, is the main international airport in the Maldives. It is located on Hulhulé Island in the North Malé Atoll, nearby the capital island Malé.

The Waterdrome, where numerous seaplanes operate from, is located to the east of the main airport complex. Approach and departure routes from the waterdrome cross the main runway.

Climatology

Tropical monsoon climate (Köppen climate classification Am)

Airport map

Aerial View

Airport accidents

SKYbrary Partners:

Safety knowledge contributed by: